Year,Month,Day,Hour,Minute,Value (Times are PST for temperature in C)
2013,07,27,00,00,12.30
2013,07,27,00,01,12.30
2013,07,27,00,02,12.30
2013,07,27,00,03,12.30
2013,07,27,00,04,12.30
2013,07,27,00,05,12.30
2013,07,27,00,06,12.30
2013,07,27,00,07,12.30
2013,07,27,00,08,12.30
2013,07,27,00,09,12.30
2013,07,27,00,10,12.30
2013,07,27,00,11,12.30
2013,07,27,00,12,12.30
2013,07,27,00,13,12.30
2013,07,27,00,14,12.30
2013,07,27,00,15,12.30
2013,07,27,00,16,12.30
2013,07,27,00,17,12.30
2013,07,27,00,18,12.30
2013,07,27,00,19,12.30
2013,07,27,00,20,12.30
2013,07,27,00,21,12.30
2013,07,27,00,22,12.30
2013,07,27,00,23,12.30
2013,07,27,00,24,12.30
2013,07,27,00,25,12.30
2013,07,27,00,26,12.30
2013,07,27,00,27,12.30
2013,07,27,00,28,12.30
2013,07,27,00,29,12.30
2013,07,27,00,30,12.30
2013,07,27,00,31,12.30
2013,07,27,00,32,12.30
2013,07,27,00,33,12.30
2013,07,27,00,34,12.30
2013,07,27,00,35,12.30
2013,07,27,00,36,12.30
2013,07,27,00,37,12.30
2013,07,27,00,38,12.30
2013,07,27,00,39,12.30
2013,07,27,00,40,12.30
2013,07,27,00,41,12.30
2013,07,27,00,42,12.30
2013,07,27,00,43,12.30
2013,07,27,00,44,12.30
2013,07,27,00,45,12.30
2013,07,27,00,46,12.30
2013,07,27,00,47,12.30
2013,07,27,00,48,12.30
2013,07,27,00,49,12.30
2013,07,27,00,50,12.30
2013,07,27,00,51,12.30
2013,07,27,00,52,12.30
2013,07,27,00,53,12.30
2013,07,27,00,54,12.30
2013,07,27,00,55,12.30
2013,07,27,00,56,12.30
2013,07,27,00,57,12.30
2013,07,27,00,58,12.30
2013,07,27,00,59,12.30
2013,07,27,01,00,12.30
2013,07,27,01,01,12.30
2013,07,27,01,02,12.30
2013,07,27,01,03,12.30
2013,07,27,01,04,12.30
2013,07,27,01,05,12.30
2013,07,27,01,06,12.30
2013,07,27,01,07,12.30
2013,07,27,01,08,12.30
2013,07,27,01,09,12.30
2013,07,27,01,10,12.30
2013,07,27,01,11,12.30
2013,07,27,01,12,12.30
2013,07,27,01,13,12.30
2013,07,27,01,14,12.30
2013,07,27,01,15,12.30
2013,07,27,01,16,12.30
2013,07,27,01,17,12.30
2013,07,27,01,18,12.30
2013,07,27,01,19,12.30
2013,07,27,01,20,12.30
2013,07,27,01,21,12.30
2013,07,27,01,22,12.30
2013,07,27,01,23,12.30
2013,07,27,01,24,12.30
2013,07,27,01,25,12.40
2013,07,27,01,26,12.40
2013,07,27,01,27,12.40
2013,07,27,01,28,12.40
2013,07,27,01,29,12.40
2013,07,27,01,30,12.40
2013,07,27,01,31,12.40
2013,07,27,01,32,12.40
2013,07,27,01,33,12.40
2013,07,27,01,34,12.40
2013,07,27,01,35,12.40
2013,07,27,01,36,12.40
2013,07,27,01,37,12.40
2013,07,27,01,38,12.40
2013,07,27,01,39,12.40
2013,07,27,01,40,12.40
2013,07,27,01,41,12.40
2013,07,27,01,42,12.50
2013,07,27,01,43,12.50
2013,07,27,01,44,12.50
2013,07,27,01,45,12.50
2013,07,27,01,46,12.50
2013,07,27,01,47,12.50
2013,07,27,01,48,12.50
2013,07,27,01,49,12.50
2013,07,27,01,50,12.50
2013,07,27,01,51,12.50
2013,07,27,01,52,12.50
2013,07,27,01,53,12.50
2013,07,27,01,54,12.50
2013,07,27,01,55,12.50
2013,07,27,01,56,12.50
2013,07,27,01,57,12.50
2013,07,27,01,58,12.50
2013,07,27,01,59,12.50
2013,07,27,02,00,12.50
2013,07,27,02,01,12.50
2013,07,27,02,02,12.50
2013,07,27,02,03,12.50
2013,07,27,02,04,12.50
2013,07,27,02,05,12.60
2013,07,27,02,06,12.60
2013,07,27,02,07,12.60
2013,07,27,02,08,12.60
2013,07,27,02,09,12.60
2013,07,27,02,10,12.60
2013,07,27,02,11,12.60
2013,07,27,02,12,12.60
2013,07,27,02,13,12.60
2013,07,27,02,14,12.60
2013,07,27,02,15,12.60
2013,07,27,02,16,12.60
2013,07,27,02,17,12.50
2013,07,27,02,18,12.50
2013,07,27,02,19,12.50
2013,07,27,02,20,12.50
2013,07,27,02,21,12.50
2013,07,27,02,22,12.50
2013,07,27,02,23,12.50
2013,07,27,02,24,12.50
2013,07,27,02,25,12.50
2013,07,27,02,26,12.50
2013,07,27,02,27,12.50
2013,07,27,02,28,12.50
2013,07,27,02,29,12.50
2013,07,27,02,30,12.50
2013,07,27,02,31,12.60
2013,07,27,02,32,12.60
2013,07,27,02,33,12.60
2013,07,27,02,34,12.60
2013,07,27,02,35,12.60
2013,07,27,02,36,12.70
2013,07,27,02,37,12.70
2013,07,27,02,38,12.70
2013,07,27,02,39,12.70
2013,07,27,02,40,12.70
2013,07,27,02,41,12.80
2013,07,27,02,42,12.80
2013,07,27,02,43,12.80
2013,07,27,02,44,12.80
2013,07,27,02,45,12.80
2013,07,27,02,46,12.80
2013,07,27,02,47,12.80
2013,07,27,02,48,12.80
2013,07,27,02,49,12.80
2013,07,27,02,50,12.80
2013,07,27,02,51,12.80
2013,07,27,02,52,12.80
2013,07,27,02,53,12.80
2013,07,27,02,54,12.80
2013,07,27,02,55,12.80
2013,07,27,02,56,12.70
2013,07,27,02,57,12.70
2013,07,27,02,58,12.60
2013,07,27,02,59,12.40
2013,07,27,03,00,12.30
2013,07,27,03,01,12.10
2013,07,27,03,02,12.00
2013,07,27,03,03,11.90
2013,07,27,03,04,11.80
2013,07,27,03,05,11.70
2013,07,27,03,06,11.70
2013,07,27,03,07,11.60
2013,07,27,03,08,11.60
2013,07,27,03,09,11.60
2013,07,27,03,10,11.50
2013,07,27,03,11,11.40
2013,07,27,03,12,11.40
2013,07,27,03,13,11.40
2013,07,27,03,14,11.40
2013,07,27,03,15,11.40
2013,07,27,03,16,11.30
2013,07,27,03,17,11.20
2013,07,27,03,18,11.20
2013,07,27,03,19,11.10
2013,07,27,03,20,11.10
2013,07,27,03,21,11.10
2013,07,27,03,22,11.00
2013,07,27,03,23,10.90
2013,07,27,03,24,10.90
2013,07,27,03,25,10.80
2013,07,27,03,26,10.80
2013,07,27,03,27,10.70
2013,07,27,03,28,10.70
2013,07,27,03,29,10.70
2013,07,27,03,30,10.60
2013,07,27,03,31,10.60
2013,07,27,03,32,10.60
2013,07,27,03,33,10.60
2013,07,27,03,34,10.60
2013,07,27,03,35,10.60
2013,07,27,03,36,10.60
2013,07,27,03,37,10.50
2013,07,27,03,38,10.40
2013,07,27,03,39,10.40
2013,07,27,03,40,10.40
2013,07,27,03,41,10.40
2013,07,27,03,42,10.40
2013,07,27,03,43,10.30
2013,07,27,03,44,10.30
2013,07,27,03,45,10.30
2013,07,27,03,46,10.20
2013,07,27,03,47,10.20
2013,07,27,03,48,10.20
2013,07,27,03,49,10.10
2013,07,27,03,50,10.10
2013,07,27,03,51,10.10
2013,07,27,03,52,10.10
2013,07,27,03,53,10.10
2013,07,27,03,54,10.10
2013,07,27,03,55,10.10
2013,07,27,03,56,10.10
2013,07,27,03,57,10.10
2013,07,27,03,58,9.90
2013,07,27,03,59,9.90
2013,07,27,04,00,9.90
2013,07,27,04,01,9.90
2013,07,27,04,02,9.80
2013,07,27,04,03,9.80
2013,07,27,04,04,9.70
2013,07,27,04,05,9.70
2013,07,27,04,06,9.70
2013,07,27,04,07,9.70
2013,07,27,04,08,9.70
2013,07,27,04,09,9.60
2013,07,27,04,10,9.60
2013,07,27,04,11,9.60
2013,07,27,04,12,9.60
2013,07,27,04,13,9.60
2013,07,27,04,14,9.60
2013,07,27,04,15,9.50
2013,07,27,04,16,9.50
2013,07,27,04,17,9.50
2013,07,27,04,18,9.50
2013,07,27,04,19,9.50
2013,07,27,04,20,9.60
2013,07,27,04,21,9.60
2013,07,27,04,22,9.60
2013,07,27,04,23,9.60
2013,07,27,04,24,9.60
2013,07,27,04,25,9.60
2013,07,27,04,26,9.60
2013,07,27,04,27,9.60
2013,07,27,04,28,9.70
2013,07,27,04,29,9.70
2013,07,27,04,30,9.70
2013,07,27,04,31,9.70
2013,07,27,04,32,9.80
2013,07,27,04,33,9.90
2013,07,27,04,34,9.90
2013,07,27,04,35,9.90
2013,07,27,04,36,10.00
2013,07,27,04,37,10.10
2013,07,27,04,38,10.10
2013,07,27,04,39,10.20
2013,07,27,04,40,10.20
2013,07,27,04,41,10.10
2013,07,27,04,42,10.10
2013,07,27,04,43,10.10
2013,07,27,04,44,9.90
2013,07,27,04,45,9.90
2013,07,27,04,46,9.80
2013,07,27,04,47,9.80
2013,07,27,04,48,9.70
2013,07,27,04,49,9.70
2013,07,27,04,50,9.60
2013,07,27,04,51,9.60
2013,07,27,04,52,9.50
2013,07,27,04,53,9.50
2013,07,27,04,54,9.40
2013,07,27,04,55,9.40
2013,07,27,04,56,9.40
2013,07,27,04,57,9.40
2013,07,27,04,58,9.30
2013,07,27,04,59,9.30
2013,07,27,05,00,9.30
2013,07,27,05,01,9.30
2013,07,27,05,02,9.30
2013,07,27,05,03,9.30
2013,07,27,05,04,9.30
2013,07,27,05,05,9.30
2013,07,27,05,06,9.30
2013,07,27,05,07,9.30
2013,07,27,05,08,9.20
2013,07,27,05,09,9.20
2013,07,27,05,10,9.20
2013,07,27,05,11,9.20
2013,07,27,05,12,9.20
2013,07,27,05,13,9.20
2013,07,27,05,14,9.20
2013,07,27,05,15,9.20
2013,07,27,05,16,9.20
2013,07,27,05,17,9.10
2013,07,27,05,18,9.10
2013,07,27,05,19,9.00
2013,07,27,05,20,9.00
2013,07,27,05,21,9.00
2013,07,27,05,22,8.90
2013,07,27,05,23,8.90
2013,07,27,05,24,8.90
2013,07,27,05,25,8.80
2013,07,27,05,26,8.80
2013,07,27,05,27,8.70
2013,07,27,05,28,8.70
2013,07,27,05,29,8.70
2013,07,27,05,30,8.70
2013,07,27,05,31,8.70
2013,07,27,05,32,8.70
2013,07,27,05,33,8.70
2013,07,27,05,34,8.70
2013,07,27,05,35,8.70
2013,07,27,05,36,8.70
2013,07,27,05,37,8.70
2013,07,27,05,38,8.70
2013,07,27,05,39,8.70
2013,07,27,05,40,8.70
2013,07,27,05,41,8.70
2013,07,27,05,42,8.70
2013,07,27,05,43,8.70
2013,07,27,05,44,8.70
2013,07,27,05,45,8.70
2013,07,27,05,46,8.70
2013,07,27,05,47,8.80
2013,07,27,05,48,8.80
2013,07,27,05,49,8.80
2013,07,27,05,50,8.70
2013,07,27,05,51,8.70
2013,07,27,05,52,8.70
2013,07,27,05,53,8.70
2013,07,27,05,54,8.70
2013,07,27,05,55,8.70
2013,07,27,05,56,8.70
2013,07,27,05,57,8.70
2013,07,27,05,58,8.70
2013,07,27,05,59,8.70
2013,07,27,06,00,8.70
2013,07,27,06,01,8.70
2013,07,27,06,02,8.70
2013,07,27,06,03,8.60
2013,07,27,06,04,8.60
2013,07,27,06,05,8.60
2013,07,27,06,06,8.60
2013,07,27,06,07,8.60
2013,07,27,06,08,8.60
2013,07,27,06,09,8.60
2013,07,27,06,10,8.60
2013,07,27,06,11,8.50
2013,07,27,06,12,8.50
2013,07,27,06,13,8.50
2013,07,27,06,14,8.50
2013,07,27,06,15,8.60
2013,07,27,06,16,8.60
2013,07,27,06,17,8.60
2013,07,27,06,18,8.60
2013,07,27,06,19,8.70
2013,07,27,06,20,8.70
2013,07,27,06,21,8.70
2013,07,27,06,22,8.70
2013,07,27,06,23,8.80
2013,07,27,06,24,8.80
2013,07,27,06,25,8.90
2013,07,27,06,26,8.90
2013,07,27,06,27,9.00
2013,07,27,06,28,9.00
2013,07,27,06,29,9.00
2013,07,27,06,30,9.10
2013,07,27,06,31,9.20
2013,07,27,06,32,9.20
2013,07,27,06,33,9.30
2013,07,27,06,34,9.30
2013,07,27,06,35,9.40
2013,07,27,06,36,9.50
2013,07,27,06,37,9.50
2013,07,27,06,38,9.50
2013,07,27,06,39,9.50
2013,07,27,06,40,9.60
2013,07,27,06,41,9.60
2013,07,27,06,42,9.70
2013,07,27,06,43,9.70
2013,07,27,06,44,9.70
2013,07,27,06,45,9.80
2013,07,27,06,46,9.90
2013,07,27,06,47,10.10
2013,07,27,06,48,10.20
2013,07,27,06,49,10.20
2013,07,27,06,50,10.30
2013,07,27,06,51,10.30
2013,07,27,06,52,10.20
2013,07,27,06,53,10.20
2013,07,27,06,54,10.30
2013,07,27,06,55,10.30
2013,07,27,06,56,10.40
2013,07,27,06,57,10.40
2013,07,27,06,58,10.50
2013,07,27,06,59,10.60
2013,07,27,07,00,10.60
2013,07,27,07,01,10.70
2013,07,27,07,02,10.80
2013,07,27,07,03,10.90
2013,07,27,07,04,10.90
2013,07,27,07,05,10.90
2013,07,27,07,06,11.10
2013,07,27,07,07,11.10
2013,07,27,07,08,11.30
2013,07,27,07,09,11.40
2013,07,27,07,10,11.50
2013,07,27,07,11,11.60
2013,07,27,07,12,11.60
2013,07,27,07,13,11.60
2013,07,27,07,14,11.60
2013,07,27,07,15,11.70
2013,07,27,07,16,11.70
2013,07,27,07,17,11.70
2013,07,27,07,18,11.80
2013,07,27,07,19,11.80
2013,07,27,07,20,11.80
2013,07,27,07,21,11.90
2013,07,27,07,22,11.90
2013,07,27,07,23,12.00
2013,07,27,07,24,12.00
2013,07,27,07,25,12.10
2013,07,27,07,26,12.10
2013,07,27,07,27,12.20
2013,07,27,07,28,12.20
2013,07,27,07,29,12.20
2013,07,27,07,30,12.20
2013,07,27,07,31,12.20
2013,07,27,07,32,12.30
2013,07,27,07,33,12.30
2013,07,27,07,34,12.30
2013,07,27,07,35,12.30
2013,07,27,07,36,12.30
2013,07,27,07,37,12.30
2013,07,27,07,38,12.30
2013,07,27,07,39,12.30
2013,07,27,07,40,12.40
2013,07,27,07,41,12.40
2013,07,27,07,42,12.40
2013,07,27,07,43,12.40
2013,07,27,07,44,12.40
2013,07,27,07,45,12.50
2013,07,27,07,46,12.50
2013,07,27,07,47,12.60
2013,07,27,07,48,12.70
2013,07,27,07,49,12.70
2013,07,27,07,50,12.80
2013,07,27,07,51,12.80
2013,07,27,07,52,12.90
2013,07,27,07,53,12.90
2013,07,27,07,54,12.90
2013,07,27,07,55,12.90
2013,07,27,07,56,13.00
2013,07,27,07,57,13.00
2013,07,27,07,58,13.00
2013,07,27,07,59,13.00
2013,07,27,08,00,13.00
2013,07,27,08,01,13.10
2013,07,27,08,02,13.10
2013,07,27,08,03,13.20
2013,07,27,08,04,13.30
2013,07,27,08,05,13.30
2013,07,27,08,06,13.40
2013,07,27,08,07,13.40
2013,07,27,08,08,13.40
2013,07,27,08,09,13.40
2013,07,27,08,10,13.50
2013,07,27,08,11,13.60
2013,07,27,08,12,13.70
2013,07,27,08,13,13.70
2013,07,27,08,14,13.80
2013,07,27,08,15,13.80
2013,07,27,08,16,13.70
2013,07,27,08,17,13.60
2013,07,27,08,18,13.50
2013,07,27,08,19,13.30
2013,07,27,08,20,13.30
2013,07,27,08,21,13.20
2013,07,27,08,22,13.00
2013,07,27,08,23,13.00
2013,07,27,08,24,13.00
2013,07,27,08,25,12.90
2013,07,27,08,26,12.90
2013,07,27,08,27,12.90
2013,07,27,08,28,12.90
2013,07,27,08,29,12.80
2013,07,27,08,30,12.70
2013,07,27,08,31,12.70
2013,07,27,08,32,12.70
2013,07,27,08,33,12.70
2013,07,27,08,34,12.70
2013,07,27,08,35,12.60
2013,07,27,08,36,12.50
2013,07,27,08,37,12.40
2013,07,27,08,38,12.30
2013,07,27,08,39,12.30
2013,07,27,08,40,12.20
2013,07,27,08,41,12.20
2013,07,27,08,42,12.30
2013,07,27,08,43,12.30
2013,07,27,08,44,12.20
2013,07,27,08,45,12.20
2013,07,27,08,46,12.20
2013,07,27,08,47,12.10
2013,07,27,08,48,12.20
2013,07,27,08,49,12.20
2013,07,27,08,50,12.10
2013,07,27,08,51,12.10
2013,07,27,08,52,12.10
2013,07,27,08,53,12.00
2013,07,27,08,54,12.00
2013,07,27,08,55,12.00
2013,07,27,08,56,11.90
2013,07,27,08,57,11.90
2013,07,27,08,58,11.90
2013,07,27,08,59,11.90
2013,07,27,09,00,11.90
2013,07,27,09,01,11.90
2013,07,27,09,02,11.90
2013,07,27,09,03,11.90
2013,07,27,09,04,11.80
2013,07,27,09,05,11.80
2013,07,27,09,06,11.90
2013,07,27,09,07,11.90
2013,07,27,09,08,11.90
2013,07,27,09,09,11.90
2013,07,27,09,10,11.90
2013,07,27,09,11,11.90
2013,07,27,09,12,12.00
2013,07,27,09,13,12.00
2013,07,27,09,14,12.00
2013,07,27,09,15,12.10
2013,07,27,09,16,12.10
2013,07,27,09,17,12.10
2013,07,27,09,18,12.10
2013,07,27,09,19,12.10
2013,07,27,09,20,12.20
2013,07,27,09,21,12.20
2013,07,27,09,22,12.30
2013,07,27,09,23,12.30
2013,07,27,09,24,12.30
2013,07,27,09,25,12.30
2013,07,27,09,26,12.40
2013,07,27,09,27,12.40
2013,07,27,09,28,12.50
2013,07,27,09,29,12.60
2013,07,27,09,30,12.60
2013,07,27,09,31,12.70
2013,07,27,09,32,12.70
2013,07,27,09,33,12.70
2013,07,27,09,34,12.70
2013,07,27,09,35,12.70
2013,07,27,09,36,12.70
2013,07,27,09,37,12.70
2013,07,27,09,38,12.80
2013,07,27,09,39,12.80
2013,07,27,09,40,12.90
2013,07,27,09,41,13.00
2013,07,27,09,42,13.10
2013,07,27,09,43,13.20
2013,07,27,09,44,13.20
2013,07,27,09,45,13.30
2013,07,27,09,46,13.30
2013,07,27,09,47,13.30
2013,07,27,09,48,13.50
2013,07,27,09,49,13.50
2013,07,27,09,50,13.50
2013,07,27,09,51,13.50
2013,07,27,09,52,13.60
2013,07,27,09,53,13.60
2013,07,27,09,54,13.70
2013,07,27,09,55,13.70
2013,07,27,09,56,13.70
2013,07,27,09,57,13.70
2013,07,27,09,58,13.70
2013,07,27,09,59,13.70
2013,07,27,10,00,13.70
2013,07,27,10,01,13.80
2013,07,27,10,02,13.80
2013,07,27,10,03,13.80
2013,07,27,10,04,13.80
2013,07,27,10,05,13.80
2013,07,27,10,06,13.80
2013,07,27,10,07,13.80
2013,07,27,10,08,13.90
2013,07,27,10,09,14.00
2013,07,27,10,10,14.00
2013,07,27,10,11,14.10
2013,07,27,10,12,14.20
2013,07,27,10,13,14.20
2013,07,27,10,14,14.30
2013,07,27,10,15,14.40
2013,07,27,10,16,14.40
2013,07,27,10,17,14.50
2013,07,27,10,18,14.60
2013,07,27,10,19,14.70
2013,07,27,10,20,14.80
2013,07,27,10,21,14.80
2013,07,27,10,22,14.90
2013,07,27,10,23,15.00
2013,07,27,10,24,15.10
2013,07,27,10,25,15.10
2013,07,27,10,26,15.20
2013,07,27,10,27,15.20
2013,07,27,10,28,15.30
2013,07,27,10,29,15.30
2013,07,27,10,30,15.40
2013,07,27,10,31,15.40
2013,07,27,10,32,15.40
2013,07,27,10,33,15.40
2013,07,27,10,34,15.40
2013,07,27,10,35,15.50
2013,07,27,10,36,15.50
2013,07,27,10,37,15.60
2013,07,27,10,38,15.70
2013,07,27,10,39,15.80
2013,07,27,10,40,15.80
2013,07,27,10,41,15.80
2013,07,27,10,42,16.00
2013,07,27,10,43,16.10
2013,07,27,10,44,16.20
2013,07,27,10,45,16.30
2013,07,27,10,46,16.30
2013,07,27,10,47,16.30
2013,07,27,10,48,16.30
2013,07,27,10,49,16.30
2013,07,27,10,50,16.30
2013,07,27,10,51,16.40
2013,07,27,10,52,16.40
2013,07,27,10,53,16.50
2013,07,27,10,54,16.60
2013,07,27,10,55,16.60
2013,07,27,10,56,16.50
2013,07,27,10,57,16.40
2013,07,27,10,58,16.40
2013,07,27,10,59,16.20
2013,07,27,11,00,16.10
2013,07,27,11,01,16.10
2013,07,27,11,02,16.10
2013,07,27,11,03,16.10
2013,07,27,11,04,16.10
2013,07,27,11,05,16.10
2013,07,27,11,06,15.90
2013,07,27,11,07,15.80
2013,07,27,11,08,15.60
2013,07,27,11,09,15.50
2013,07,27,11,10,15.30
2013,07,27,11,11,15.10
2013,07,27,11,12,15.00
2013,07,27,11,13,14.80
2013,07,27,11,14,14.80
2013,07,27,11,15,14.80
2013,07,27,11,16,14.90
2013,07,27,11,17,14.90
2013,07,27,11,18,15.00
2013,07,27,11,19,15.00
2013,07,27,11,20,15.00
2013,07,27,11,21,15.00
2013,07,27,11,22,15.00
2013,07,27,11,23,15.10
2013,07,27,11,24,15.20
2013,07,27,11,25,15.30
2013,07,27,11,26,15.40
2013,07,27,11,27,15.60
2013,07,27,11,28,15.70
2013,07,27,11,29,15.60
2013,07,27,11,30,15.60
2013,07,27,11,31,15.60
2013,07,27,11,32,15.70
2013,07,27,11,33,15.60
2013,07,27,11,34,15.60
2013,07,27,11,35,15.60
2013,07,27,11,36,15.60
2013,07,27,11,37,15.70
2013,07,27,11,38,15.70
2013,07,27,11,39,15.70
2013,07,27,11,40,15.80
2013,07,27,11,41,15.90
2013,07,27,11,42,16.00
2013,07,27,11,43,16.10
2013,07,27,11,44,16.10
2013,07,27,11,45,16.20
2013,07,27,11,46,16.30
2013,07,27,11,47,16.40
2013,07,27,11,48,16.40
2013,07,27,11,49,16.50
2013,07,27,11,50,16.60
2013,07,27,11,51,16.70
2013,07,27,11,52,16.70
2013,07,27,11,53,16.70
2013,07,27,11,54,16.80
2013,07,27,11,55,16.80
2013,07,27,11,56,16.80
2013,07,27,11,57,16.80
2013,07,27,11,58,16.70
2013,07,27,11,59,16.60
2013,07,27,12,00,16.50
2013,07,27,12,01,16.40
2013,07,27,12,02,16.40
2013,07,27,12,03,16.30
2013,07,27,12,04,16.30
2013,07,27,12,05,16.30
2013,07,27,12,06,16.40
2013,07,27,12,07,16.40
2013,07,27,12,08,16.40
2013,07,27,12,09,16.50
2013,07,27,12,10,16.60
2013,07,27,12,11,16.60
2013,07,27,12,12,16.70
2013,07,27,12,13,16.70
2013,07,27,12,14,16.70
2013,07,27,12,15,16.70
2013,07,27,12,16,16.70
2013,07,27,12,17,16.80
2013,07,27,12,18,16.90
2013,07,27,12,19,16.80
2013,07,27,12,20,16.80
2013,07,27,12,21,16.70
2013,07,27,12,22,16.70
2013,07,27,12,23,16.70
2013,07,27,12,24,16.80
2013,07,27,12,25,16.80
2013,07,27,12,26,16.80
2013,07,27,12,27,16.70
2013,07,27,12,28,16.70
2013,07,27,12,29,16.70
2013,07,27,12,30,16.70
2013,07,27,12,31,16.60
2013,07,27,12,32,16.50
2013,07,27,12,33,16.40
2013,07,27,12,34,16.20
2013,07,27,12,35,16.20
2013,07,27,12,36,16.10
2013,07,27,12,37,16.10
2013,07,27,12,38,16.00
2013,07,27,12,39,15.90
2013,07,27,12,40,15.80
2013,07,27,12,41,15.80
2013,07,27,12,42,15.70
2013,07,27,12,43,15.60
2013,07,27,12,44,15.70
2013,07,27,12,45,15.70
2013,07,27,12,46,15.70
2013,07,27,12,47,15.60
2013,07,27,12,48,15.70
2013,07,27,12,49,15.70
2013,07,27,12,50,15.60
2013,07,27,12,51,15.60
2013,07,27,12,52,15.50
2013,07,27,12,53,15.30
2013,07,27,12,54,15.30
2013,07,27,12,55,15.20
2013,07,27,12,56,15.20
2013,07,27,12,57,15.10
2013,07,27,12,58,15.10
2013,07,27,12,59,15.10
2013,07,27,13,00,15.10
2013,07,27,13,01,15.20
2013,07,27,13,02,15.40
2013,07,27,13,03,15.40
2013,07,27,13,04,15.40
2013,07,27,13,05,15.50
2013,07,27,13,06,15.50
2013,07,27,13,07,15.50
2013,07,27,13,08,15.60
2013,07,27,13,09,15.50
2013,07,27,13,10,15.50
2013,07,27,13,11,15.40
2013,07,27,13,12,15.30
2013,07,27,13,13,15.30
2013,07,27,13,14,15.40
2013,07,27,13,15,15.30
2013,07,27,13,16,15.30
2013,07,27,13,17,15.30
2013,07,27,13,18,15.30
2013,07,27,13,19,15.30
2013,07,27,13,20,15.30
2013,07,27,13,21,15.30
2013,07,27,13,22,15.30
2013,07,27,13,23,15.40
2013,07,27,13,24,15.40
2013,07,27,13,25,15.50
2013,07,27,13,26,15.50
2013,07,27,13,27,15.40
2013,07,27,13,28,15.30
2013,07,27,13,29,15.30
2013,07,27,13,30,15.30
2013,07,27,13,31,15.30
2013,07,27,13,32,15.30
2013,07,27,13,33,15.50
2013,07,27,13,34,15.50
2013,07,27,13,35,15.40
2013,07,27,13,36,15.40
2013,07,27,13,37,15.50
2013,07,27,13,38,15.60
2013,07,27,13,39,15.80
2013,07,27,13,40,15.90
2013,07,27,13,41,16.00
2013,07,27,13,42,16.10
2013,07,27,13,43,16.10
2013,07,27,13,44,16.10
2013,07,27,13,45,16.10
2013,07,27,13,46,16.10
2013,07,27,13,47,16.10
2013,07,27,13,48,16.10
2013,07,27,13,49,16.00
2013,07,27,13,50,15.90
2013,07,27,13,51,15.80
2013,07,27,13,52,15.80
2013,07,27,13,53,15.80
2013,07,27,13,54,15.80
2013,07,27,13,55,15.80
2013,07,27,13,56,15.80
2013,07,27,13,57,15.80
2013,07,27,13,58,15.80
2013,07,27,13,59,15.90
2013,07,27,14,00,16.00
2013,07,27,14,01,16.10
2013,07,27,14,02,16.10
2013,07,27,14,03,16.20
2013,07,27,14,04,16.30
2013,07,27,14,05,16.40
2013,07,27,14,06,16.40
2013,07,27,14,07,16.40
2013,07,27,14,08,16.40
2013,07,27,14,09,16.40
2013,07,27,14,10,16.40
2013,07,27,14,11,16.40
2013,07,27,14,12,16.40
2013,07,27,14,13,16.40
2013,07,27,14,14,16.40
2013,07,27,14,15,16.50
2013,07,27,14,16,16.60
2013,07,27,14,17,16.70
2013,07,27,14,18,16.80
2013,07,27,14,19,16.90
2013,07,27,14,20,17.00
2013,07,27,14,21,17.10
2013,07,27,14,22,17.00
2013,07,27,14,23,17.00
2013,07,27,14,24,17.00
2013,07,27,14,25,16.80
2013,07,27,14,26,16.70
2013,07,27,14,27,16.70
2013,07,27,14,28,16.70
2013,07,27,14,29,16.70
2013,07,27,14,30,16.70
2013,07,27,14,31,16.80
2013,07,27,14,32,16.80
2013,07,27,14,33,16.70
2013,07,27,14,34,16.70
2013,07,27,14,35,16.60
2013,07,27,14,36,16.60
2013,07,27,14,37,16.70
2013,07,27,14,38,16.70
2013,07,27,14,39,16.70
2013,07,27,14,40,16.70
2013,07,27,14,41,16.70
2013,07,27,14,42,16.70
2013,07,27,14,43,16.70
2013,07,27,14,44,16.70
2013,07,27,14,45,16.70
2013,07,27,14,46,16.60
2013,07,27,14,47,16.60
2013,07,27,14,48,16.60
2013,07,27,14,49,16.60
2013,07,27,14,50,16.60
2013,07,27,14,51,16.60
2013,07,27,14,52,16.60
2013,07,27,14,53,16.70
2013,07,27,14,54,16.70
2013,07,27,14,55,16.70
2013,07,27,14,56,16.70
2013,07,27,14,57,16.70
2013,07,27,14,58,16.70
2013,07,27,14,59,16.80
2013,07,27,15,00,16.90
2013,07,27,15,01,17.10
2013,07,27,15,02,17.20
2013,07,27,15,03,17.30
2013,07,27,15,04,17.20
2013,07,27,15,05,17.20
2013,07,27,15,06,17.20
2013,07,27,15,07,17.10
2013,07,27,15,08,17.10
2013,07,27,15,09,17.10
2013,07,27,15,10,17.00
2013,07,27,15,11,17.00
2013,07,27,15,12,17.00
2013,07,27,15,13,17.00
2013,07,27,15,14,17.10
2013,07,27,15,15,17.30
2013,07,27,15,16,17.40
2013,07,27,15,17,17.50
2013,07,27,15,18,17.40
2013,07,27,15,19,17.30
2013,07,27,15,20,17.30
2013,07,27,15,21,17.30
2013,07,27,15,22,17.30
2013,07,27,15,23,17.30
2013,07,27,15,24,17.40
2013,07,27,15,25,17.50
2013,07,27,15,26,17.60
2013,07,27,15,27,17.70
2013,07,27,15,28,17.60
2013,07,27,15,29,17.70
2013,07,27,15,30,17.70
2013,07,27,15,31,17.60
2013,07,27,15,32,17.60
2013,07,27,15,33,17.60
2013,07,27,15,34,17.70
2013,07,27,15,35,17.80
2013,07,27,15,36,17.80
2013,07,27,15,37,17.70
2013,07,27,15,38,17.60
2013,07,27,15,39,17.50
2013,07,27,15,40,17.50
2013,07,27,15,41,17.60
2013,07,27,15,42,17.60
2013,07,27,15,43,17.50
2013,07,27,15,44,17.50
2013,07,27,15,45,17.50
2013,07,27,15,46,17.50
2013,07,27,15,47,17.50
2013,07,27,15,48,17.50
2013,07,27,15,49,17.40
2013,07,27,15,50,17.40
2013,07,27,15,51,17.30
2013,07,27,15,52,17.20
2013,07,27,15,53,17.20
2013,07,27,15,54,17.30
2013,07,27,15,55,17.30
2013,07,27,15,56,17.30
2013,07,27,15,57,17.30
2013,07,27,15,58,17.40
2013,07,27,15,59,17.40
2013,07,27,16,00,17.50
2013,07,27,16,01,17.40
2013,07,27,16,02,17.50
2013,07,27,16,03,17.50
2013,07,27,16,04,17.60
2013,07,27,16,05,17.70
2013,07,27,16,06,17.80
2013,07,27,16,07,17.90
2013,07,27,16,08,17.90
2013,07,27,16,09,17.90
2013,07,27,16,10,17.90
2013,07,27,16,11,17.80
2013,07,27,16,12,17.70
2013,07,27,16,13,17.70
2013,07,27,16,14,17.80
2013,07,27,16,15,17.80
2013,07,27,16,16,17.80
2013,07,27,16,17,17.80
2013,07,27,16,18,17.80
2013,07,27,16,19,17.70
2013,07,27,16,20,17.60
2013,07,27,16,21,17.50
2013,07,27,16,22,17.50
2013,07,27,16,23,17.50
2013,07,27,16,24,17.50
2013,07,27,16,25,17.50
2013,07,27,16,26,17.60
2013,07,27,16,27,17.70
2013,07,27,16,28,17.60
2013,07,27,16,29,17.60
2013,07,27,16,30,17.70
2013,07,27,16,31,17.80
2013,07,27,16,32,17.80
2013,07,27,16,33,17.80
2013,07,27,16,34,17.80
2013,07,27,16,35,17.90
2013,07,27,16,36,17.90
2013,07,27,16,37,18.00
2013,07,27,16,38,18.10
2013,07,27,16,39,18.10
2013,07,27,16,40,18.20
2013,07,27,16,41,18.20
2013,07,27,16,42,18.20
2013,07,27,16,43,18.10
2013,07,27,16,44,18.00
2013,07,27,16,45,17.90
2013,07,27,16,46,18.00
2013,07,27,16,47,18.10
2013,07,27,16,48,18.10
2013,07,27,16,49,18.10
2013,07,27,16,50,17.90
2013,07,27,16,51,17.90
2013,07,27,16,52,17.80
2013,07,27,16,53,17.80
2013,07,27,16,54,17.80
2013,07,27,16,55,17.70
2013,07,27,16,56,17.70
2013,07,27,16,57,17.60
2013,07,27,16,58,17.60
2013,07,27,16,59,17.50
2013,07,27,17,00,17.50
2013,07,27,17,01,17.40
2013,07,27,17,02,17.40
2013,07,27,17,03,17.30
2013,07,27,17,04,17.30
2013,07,27,17,05,17.40
2013,07,27,17,06,17.40
2013,07,27,17,07,17.40
2013,07,27,17,08,17.40
2013,07,27,17,09,17.50
2013,07,27,17,10,17.50
2013,07,27,17,11,17.50
2013,07,27,17,12,17.50
2013,07,27,17,13,17.50
2013,07,27,17,14,17.50
2013,07,27,17,15,17.50
2013,07,27,17,16,17.50
2013,07,27,17,17,17.50
2013,07,27,17,18,17.60
2013,07,27,17,19,17.60
2013,07,27,17,20,17.60
2013,07,27,17,21,17.70
2013,07,27,17,22,17.80
2013,07,27,17,23,17.80
2013,07,27,17,24,17.70
2013,07,27,17,25,17.60
2013,07,27,17,26,17.60